This is the latest recevied weather packets stored in our database for station/object KG6QHD-13. If no packets are shown the sender has not sent any weather packets the latest 10 day(s).
| Time | Temp. | Humidity | Pressure | Rain* | Wind** | Luminosity | Snow |
|---|---|---|---|---|---|---|---|
| 1777619753 | 0.56° C | 90% | 1023.2 hPa | 0 mm | - | 0 W/m² | - |
| 1777617347 | 0.56° C | 89% | 1023.4 hPa | 0 mm | - | 0 W/m² | - |
| 1777616444 | 0.56° C | 89% | 1023.4 hPa | 0 mm | - | 0 W/m² | - |
| 1777614950 | 0.56° C | 89% | 1023.5 hPa | 0 mm | - | 0 W/m² | - |
| 1777613455 | 0.56° C | 88% | 1023.4 hPa | 0 mm | - | 0 W/m² | - |
| 1777613148 | 0.56° C | 88% | 1023.3 hPa | 0.25 mm | - | 0 W/m² | - |
| 1777612849 | 0.56° C | 88% | 1023.3 hPa | 0.25 mm | - | 0 W/m² | - |
| 1777609850 | 0.56° C | 88% | 1023.5 hPa | 0.25 mm | - | 0 W/m² | - |
| 1777608060 | 0.56° C | 87% | 1023.5 hPa | 0.25 mm | - | 0 W/m² | - |
| 1777607449 | 0.56° C | 87% | 1023.4 hPa | 0.25 mm | - | 0 W/m² | - |
| 1777601145 | 0.56° C | 90% | 1022.1 hPa | 0.25 mm | - | 0 W/m² | - |
| 1777600896 | 0.56° C | 90% | 1022 hPa | 0.25 mm | - | 0 W/m² | - |
| 1777596947 | 1.11° C | 90% | 1021.7 hPa | 0.51 mm | - | 18 W/m² | - |
| 1777595461 | 1.67° C | 90% | 1021.5 hPa | 0.51 mm | - | 30 W/m² | - |
| 1777593346 | 1.67° C | 88% | 1021.5 hPa | 0.25 mm | - | 67 W/m² | - |
| 1777593046 | 1.67° C | 88% | 1021.4 hPa | 0.25 mm | - | 72 W/m² | - |
| 1777592750 | 1.67° C | 88% | 1021.4 hPa | 0.25 mm | - | 88 W/m² | - |
| 1777591547 | 1.67° C | 87% | 1021.2 hPa | 0 mm | - | 125 W/m² | - |
| 1777589748 | 2.22° C | 85% | 1021.2 hPa | 0 mm | - | 121 W/m² | - |
| 1777587949 | 2.22° C | 84% | 1021.1 hPa | 0 mm | - | 192 W/m² | - |
| 1777587045 | 2.22° C | 85% | 1021.3 hPa | 0 mm | - | 218 W/m² | - |
| 1777584344 | 2.22° C | 84% | 1021.4 hPa | 0 mm | - | 265 W/m² | - |
| 1777583754 | 2.22° C | 84% | 1021.5 hPa | 0 mm | - | 290 W/m² | - |
| 1777583146 | 1.67° C | 84% | 1021.5 hPa | 0 mm | - | 257 W/m² | - |
| 1777582867 | 1.67° C | 85% | 1021.4 hPa | 0 mm | - | 246 W/m² | - |
* Rain latest hour (hover to see other rain measurements)
** Current wind speed in m/s (hover to see current wind gust speed)